This is the latest recevied weather packets stored in our database for station/object KD2SIG. If no packets are shown the sender has not sent any weather packets the latest 1 day(s).
| Time | Temp. | Humidity | Pressure | Rain* | Wind** | Luminosity | Snow |
|---|---|---|---|---|---|---|---|
| 1778040703 | 7.22° C | 96% | 1011.3 hPa | 0 mm | 0 m/s | 0 W/m² | - |
| 1778040401 | 7.22° C | 96% | 1011.4 hPa | 0 mm | 0 m/s | 0 W/m² | - |
| 1778040098 | 7.22° C | 96% | 1011.3 hPa | 1.78 mm | 0 m/s | 0 W/m² | - |
| 1778039795 | 7.22° C | 96% | 1011.3 hPa | 1.78 mm | 0.45 m/s, 231° | 0 W/m² | - |
| 1778039491 | 7.22° C | 96% | 1011 hPa | 0 mm | 0.45 m/s, 254° | 0 W/m² | - |
| 1778039189 | 7.22° C | 96% | 1011.4 hPa | 1.27 mm | 0 m/s | 0 W/m² | - |
| 1778038886 | 7.22° C | 96% | 1011.2 hPa | 1.27 mm | 0 m/s | 0 W/m² | - |
| 1778038583 | 7.22° C | 96% | 1011.3 hPa | 1.78 mm | 0.45 m/s, 247° | 0 W/m² | - |
| 1778038280 | 7.22° C | 96% | 1011.5 hPa | 1.78 mm | 0 m/s | 0 W/m² | - |
| 1778037977 | 7.22° C | 96% | 1011.5 hPa | 0 mm | 0 m/s | 0 W/m² | - |
| 1778037674 | 7.22° C | 96% | 1011.4 hPa | 1.27 mm | 0.45 m/s, 246° | 0 W/m² | - |
| 1778037371 | 7.22° C | 96% | 1011.4 hPa | 1.27 mm | 0.45 m/s, 237° | 0 W/m² | - |
| 1778037068 | 7.22° C | 96% | 1011.4 hPa | 0 mm | 0 m/s | 0 W/m² | - |
| 1778036767 | 7.22° C | 95% | 1011.3 hPa | 1.78 mm | 0 m/s | 0 W/m² | - |
| 1778036463 | 7.22° C | 95% | 1011.1 hPa | 0 mm | 0 m/s | 0 W/m² | - |
| 1778036160 | 7.22° C | 95% | 1011.2 hPa | 1.27 mm | 0.45 m/s, 244° | 0 W/m² | - |
| 1778035856 | 7.78° C | 95% | 1011.2 hPa | 1.78 mm | 0.45 m/s, 273° | 0 W/m² | - |
| 1778035554 | 7.78° C | 95% | 1011.3 hPa | 3.56 mm | 0.45 m/s, 260° | 0 W/m² | - |
| 1778035250 | 7.78° C | 95% | 1011.3 hPa | 1.78 mm | 0 m/s | 0 W/m² | - |
| 1778034946 | 7.78° C | 95% | 1011.1 hPa | 1.27 mm | 0 m/s | 0 W/m² | - |
| 1778034644 | 7.78° C | 95% | 1011 hPa | 3.05 mm | 0 m/s | 0 W/m² | - |
| 1778034341 | 7.78° C | 95% | 1010.9 hPa | 1.78 mm | 0 m/s | 0 W/m² | - |
| 1778034038 | 7.78° C | 95% | 1011 hPa | 1.27 mm | 0 m/s | 0 W/m² | - |
| 1778033736 | 7.78° C | 95% | 1011 hPa | 1.27 mm | 0 m/s | 0 W/m² | - |
| 1778033433 | 7.78° C | 95% | 1011 hPa | 1.78 mm | 0 m/s | 0 W/m² | - |
* Rain latest hour (hover to see other rain measurements)
** Current wind speed in m/s (hover to see current wind gust speed)